[[{"header":{"parameterUnit":"m.s-1","parameterCategory":1,"la1":30.2991,"la2":30.254,"lo1":-89.0895,"lo2":-89.0444,"dy":0.0017,"dx":0.0017,"nx":28,"ny":28,"refTime":"2024-07-22T21:00:00:Z","depth":0,"parameterNumber":2,"parameterNumberName":"U-component_of_WINDS"},"data":[0,0,0,0,0,0,0,0,0,0,0,0,0,0,0,0,0,0,0,0,0,0,0,0,0,0,0,0,0,0,0,0,0,0,0,0,0,0,0,0,0,0,0,0,0,0,0,0,0,0,0,0,0,0,0,0,0,0,-2.2444,-2.2445,0,-2.2507,-2.2508,-2.2508,-2.2477,-2.2476,-2.2474,-2.2473,-2.2538,-2.2541,-2.2544,0,0,0,0,0,0,0,0,0,0,0,0,0,-2.2297,-2.23,-2.2444,-2.2445,-2.2445,-2.2507,-2.2508,-2.2509,-2.2478,-2.2476,-2.2474,-2.2472,-2.2537,-2.2541,-2.2545,0,0,0,0,0,0,0,0,0,0,0,0,0,-2.2361,-2.2301,-2.2444,-2.2437,-2.2438,-2.2507,-2.2508,-2.2509,-2.2478,-2.2476,-2.2473,-2.2471,-2.2536,-2.254,-2.2545,-2.2624,0,0,-2.256,-2.2562,0,0,0,0,0,0,0,0,-2.2357,-2.2366,-2.2438,-2.2438,-2.2438,-2.2482,-2.248,-2.2548,-2.2479,-2.2463,-2.2473,-2.247,-2.2521,-2.2527,-2.2544,-2.2627,-2.263,-2.2561,-2.2563,-2.2566,-2.2567,0,0,0,0,0,0,0,-2.2353,-2.2363,-2.2469,-2.2439,-2.2439,-2.2432,-2.2438,-2.2493,-2.2505,-2.2464,-2.2462,-2.247,-2.2521,-2.254,-2.2546,-2.2631,-2.256,-2.2565,-2.2568,-2.257,-2.2783,-2.2785,0,0,0,0,0,0,-2.2349,-2.236,-2.2467,-2.2471,-2.2391,-2.2436,-2.2443,-2.247,-2.2504,-2.2507,-2.2472,-2.2468,-2.2533,-2.254,-2.2548,-2.2643,-2.2566,-2.257,-2.2573,-2.278,-2.2783,-2.2786,0,0,0,0,0,0,-2.2346,-2.2359,-2.2464,-2.2415,-2.2428,-2.2441,-2.2472,-2.2473,-2.2492,-2.251,-2.2512,-2.2489,-2.2531,-2.2541,-2.2606,-2.2645,-2.2572,-2.2577,-2.2777,-2.2781,-2.2785,-2.2834,0,0,0,0,0,0,-2.2342,-2.2358,-2.2388,-2.2416,-2.243,-2.2521,-2.2474,-2.2476,-2.25,-2.2496,-2.2527,-2.2529,-2.253,-2.2599,-2.2611,-2.265,-2.2581,-2.2773,-2.2779,-2.2784,-2.2829,-2.2839,-2.2848,0,0,0,0,0,-2.2337,-2.2399,-2.2389,-2.2402,-2.2468,-2.2523,-2.2532,-2.2531,-2.2503,-2.2534,-2.2546,-2.2528,-2.2639,-2.2605,-2.2619,-2.2661,-2.2771,-2.2777,-2.2783,-2.2825,-2.2837,-2.2848,0,0,0,0,0,0,-2.2375,-2.2403,-2.2392,-2.2466,-2.2492,-2.2518,-2.2556,-2.2544,-2.2579,-2.2574,-2.2571,-2.2579,-2.2646,-2.266,-2.2622,-2.2739,-2.2701,-2.271,-2.2728,-2.274,-2.2749,-2.2745,-2.2585,0,0,0,0,0,-2.2393,-2.2435,-2.2456,-2.2519,-2.2533,-2.2542,-2.2566,-2.2563,-2.2591,-2.2602,-2.2619,-2.2647,-2.2687,-2.2714,-2.2753,-2.2831,-2.2837,-2.2866,-2.2876,-2.2884,-2.2892,-2.2934,-2.2948,-2.2807,-2.2807,-2.2806,0,0,-2.2428,-2.2448,-2.2475,-2.2527,-2.2548,-2.2592,-2.2552,-2.26,-2.2633,-2.2609,-2.2671,-2.2685,-2.2716,-2.2787,-2.282,-2.2801,-2.2932,-2.2892,-2.2898,-2.2901,-2.2942,-2.2955,-2.2967,-2.2811,-2.281,-2.2809,0,0,-2.2516,-2.2535,-2.259,-2.2611,-2.2642,-2.2648,-2.2662,-2.2689,-2.2697,-2.2759,-2.2743,-2.2782,-2.2852,-2.2875,-2.2896,-2.2993,-2.2978,-2.3005,-2.3056,-2.3097,-2.3108,-2.3118,-2.3153,-2.3165,-2.3013,-2.3013,-2.3013,0,-2.2557,-2.2622,-2.262,-2.2669,-2.2693,-2.2674,-2.2729,-2.275,-2.2792,-2.2809,-2.2787,-2.2876,-2.2895,-2.2972,-2.2996,-2.3013,-2.3028,-2.3002,-2.3107,-2.3117,-2.3126,-2.3159,-2.3172,-2.3016,-2.3016,-2.3016,-2.3015,0,-2.267,-2.2716,-2.2756,-2.2798,-2.2826,-2.2878,-2.2884,-2.2913,-2.2908,-2.2916,-2.298,-2.3003,-2.3046,-2.3064,-2.3059,-2.314,-2.3128,-2.3107,-2.3068,-2.3142,-2.3174,-2.3186,-2.3021,-2.302,-2.3019,-2.3018,0,0,-2.2784,-2.2824,-2.2839,-2.2857,-2.2891,-2.2926,-2.2978,-2.302,-2.3045,-2.3075,-2.3118,-2.3178,-2.3159,-2.3183,-2.3181,-2.3217,-2.3293,-2.3192,-2.3192,-2.321,-2.3384,-2.34,-2.3415,-2.3283,-2.3286,-2.3288,-2.3382,0,-2.2874,-2.2964,-2.2964,-2.3047,-2.3089,-2.3072,-2.3117,-2.3143,-2.3152,-2.319,-2.32,-2.3243,-2.3214,-2.3228,-2.3264,-2.3276,-2.3328,-2.3269,-2.3324,-2.3326,-2.3317,-2.3431,-2.3448,-2.3535,-2.3394,-2.3396,-2.3398,0,-2.2991,-2.3025,-2.3113,-2.314,-2.3158,-2.3198,-2.3237,-2.3273,-2.3302,-2.3306,-2.3333,-2.3325,-2.3378,-2.3338,-2.3411,-2.3371,-2.3394,-2.3403,-2.3407,-2.3412,-2.3366,-2.3439,-2.3563,-2.3577,-2.3417,-2.3415,-2.3414,0,-2.3065,-2.3133,-2.3194,-2.3211,-2.3244,-2.3273,-2.3289,-2.3315,-2.3341,-2.3375,-2.3391,-2.3431,-2.3453,-2.3484,-2.3487,-2.3458,-2.3561,-2.3521,-2.3567,-2.3567,-2.3589,-2.3588,-2.3718,-2.3604,-2.3603,-2.3603,-2.3603,0,-2.3166,-2.322,-2.3228,-2.3266,-2.3326,-2.3326,-2.3386,-2.3399,-2.3422,-2.3462,-2.345,-2.3488,-2.349,-2.3529,-2.3532,-2.3593,-2.3603,-2.3608,-2.3608,-2.3609,-2.3609,-2.3624,-2.3618,-2.3607,-2.3606,-2.3605,-2.3605,0,-2.3259,-2.3266,-2.3332,-2.3359,-2.3367,-2.341,-2.3433,-2.3469,-2.3477,-2.3529,-2.3541,-2.3554,-2.3599,-2.3606,-2.3659,-2.3661,-2.3734,-2.3727,-2.3724,-2.3723,-2.3768,-2.3764,-2.3914,-2.3933,-2.3805,-2.3807,-2.3808,0,-2.3323,-2.3364,-2.3395,-2.3421,-2.3438,-2.348,-2.3506,-2.3507,-2.3535,-2.3571,-2.3603,-2.3647,-2.3683,-2.3756,-2.3771,-2.3812,-2.3807,-2.3856,-2.3813,-2.3813,-2.3808,-2.3805,-2.381,-2.3865,-2.3866,-2.3867,-2.3868,0,-2.3435,-2.3437,-2.3474,-2.3514,-2.3545,-2.3576,-2.3606,-2.3628,-2.3633,-2.3665,-2.3711,-2.3738,-2.3793,-2.3837,-2.3878,-2.3894,-2.3882,-2.3882,-2.3894,-2.3896,-2.3892,-2.3895,-2.3747,-2.3878,-2.3877,-2.3876,-2.3876,-2.3876,-2.3515,-2.3552,-2.3579,-2.3622,-2.3644,-2.3672,-2.3707,-2.372,-2.3759,-2.3803,-2.3802,-2.3853,-2.3881,-2.3934,-2.3954,-2.3994,-2.3978,-2.3996,-2.4001,-2.4005,-2.401,-2.3886,-2.4001,-2.4001,-2.4001,-2.4,-2.4,0,-2.3627,-2.3644,-2.3684,-2.3725,-2.3759,-2.3745,-2.3777,-2.3806,-2.3851,-2.3878,-2.3914,-2.3967,-2.401,-2.4028,-2.4071,-2.4099,-2.4095,-2.4111,-2.4109,-2.4113,-2.4022,-2.4007,-2.4113,-2.4113,-2.4113,-2.4113,-2.4113,-2.4113,-2.3689,-2.375,-2.3755,-2.3827,-2.3843,-2.3893,-2.3913,-2.3939,-2.3961,-2.4021,-2.4057,-2.4068,-2.4092,-2.4136,-2.4175,-2.4179,-2.4196,-2.4213,-2.4215,-2.413,-2.4119,-2.4108,-2.4094,-2.4217,-2.4217,-2.4303,-2.4304,-2.4304]},{"header":{"parameterUnit":"m.s-1","parameterCategory":1,"la1":30.2991,"la2":30.254,"lo1":-89.0895,"lo2":-89.0444,"dy":0.0017,"dx":0.0017,"nx":28,"ny":28,"refTime":"2024-07-22T21:00:00:Z","depth":0,"parameterNumber":3,"parameterNumberName":"V-component_of_WINDS"},"data":[0,0,0,0,0,0,0,0,0,0,0,0,0,0,0,0,0,0,0,0,0,0,0,0,0,0,0,0,0,0,0,0,0,0,0,0,0,0,0,0,0,0,0,0,0,0,0,0,0,0,0,0,0,0,0,0,0,0,-0.5317,-0.5317,0,-0.5313,-0.5313,-0.5312,-0.5289,-0.5288,-0.5288,-0.5287,-0.5284,-0.5285,-0.5285,0,0,0,0,0,0,0,0,0,0,0,0,0,-0.5308,-0.5308,-0.5317,-0.5317,-0.5317,-0.5313,-0.5313,-0.5312,-0.5289,-0.5288,-0.5288,-0.5287,-0.5284,-0.5285,-0.5285,0,0,0,0,0,0,0,0,0,0,0,0,0,-0.5308,-0.5308,-0.5317,-0.5305,-0.5304,-0.5313,-0.5313,-0.5312,-0.5289,-0.5288,-0.5287,-0.5287,-0.5284,-0.5284,-0.5285,-0.5306,0,0,-0.5287,-0.5287,0,0,0,0,0,0,0,0,-0.5308,-0.5309,-0.5307,-0.5306,-0.5304,-0.53,-0.5308,-0.531,-0.5289,-0.5295,-0.5287,-0.5286,-0.529,-0.529,-0.5291,-0.5306,-0.5306,-0.5287,-0.5288,-0.5288,-0.5288,0,0,0,0,0,0,0,-0.5308,-0.5309,-0.5315,-0.5307,-0.5305,-0.53,-0.5299,-0.5308,-0.5297,-0.5294,-0.5292,-0.5292,-0.529,-0.5291,-0.5291,-0.5306,-0.5287,-0.5288,-0.5288,-0.5288,-0.5339,-0.534,0,0,0,0,0,0,-0.531,-0.5309,-0.5315,-0.5315,-0.5304,-0.5301,-0.53,-0.5303,-0.5297,-0.5296,-0.5293,-0.5291,-0.529,-0.529,-0.5291,-0.5316,-0.5288,-0.5289,-0.5289,-0.5338,-0.5339,-0.534,0,0,0,0,0,0,-0.531,-0.5311,-0.5316,-0.5312,-0.5312,-0.5302,-0.5305,-0.5303,-0.5304,-0.5296,-0.5294,-0.5296,-0.529,-0.529,-0.5303,-0.5316,-0.5289,-0.5289,-0.5337,-0.5339,-0.534,-0.5367,0,0,0,0,0,0,-0.531,-0.5311,-0.5318,-0.5312,-0.5312,-0.5327,-0.5306,-0.5303,-0.5305,-0.5303,-0.5299,-0.5297,-0.5289,-0.5302,-0.5304,-0.5316,-0.529,-0.5336,-0.5338,-0.5339,-0.5365,-0.5369,-0.5372,0,0,0,0,0,-0.5309,-0.5326,-0.5318,-0.5319,-0.5321,-0.5328,-0.5328,-0.5317,-0.5306,-0.5314,-0.5309,-0.5297,-0.5314,-0.5304,-0.5305,-0.5318,-0.5335,-0.5337,-0.5339,-0.5363,-0.5368,-0.5372,0,0,0,0,0,0,-0.5334,-0.5325,-0.5316,-0.5331,-0.533,-0.5324,-0.5333,-0.5323,-0.5326,-0.5323,-0.5311,-0.531,-0.5325,-0.5323,-0.5311,-0.5339,-0.5323,-0.5325,-0.534,-0.5345,-0.5349,-0.5349,-0.5291,0,0,0,0,0,-0.5341,-0.5346,-0.5338,-0.5352,-0.5352,-0.5343,-0.5345,-0.5337,-0.5336,-0.5336,-0.5332,-0.5332,-0.5337,-0.5341,-0.5345,-0.5364,-0.5364,-0.5374,-0.5378,-0.5381,-0.5384,-0.5395,-0.54,-0.5347,-0.5347,-0.5347,0,0,-0.5355,-0.5351,-0.5355,-0.5357,-0.5355,-0.5362,-0.5343,-0.535,-0.5356,-0.5337,-0.5349,-0.5346,-0.5345,-0.5362,-0.5369,-0.536,-0.5398,-0.5384,-0.5387,-0.5387,-0.5398,-0.5403,-0.5407,-0.5349,-0.5349,-0.5348,0,0,-0.5386,-0.5383,-0.5395,-0.5394,-0.5391,-0.5385,-0.5388,-0.5383,-0.5381,-0.5392,-0.5379,-0.5386,-0.5395,-0.5395,-0.5396,-0.5428,-0.5418,-0.543,-0.5451,-0.5462,-0.5466,-0.547,-0.5482,-0.5487,-0.5433,-0.5433,-0.5433,0,-0.5405,-0.5414,-0.5402,-0.5411,-0.5413,-0.5396,-0.5409,-0.5408,-0.5408,-0.541,-0.5401,-0.5413,-0.5411,-0.5428,-0.5436,-0.5437,-0.5441,-0.5431,-0.5466,-0.547,-0.5473,-0.5485,-0.549,-0.5434,-0.5434,-0.5434,-0.5434,0,-0.5438,-0.5444,-0.5454,-0.5454,-0.5457,-0.5468,-0.5459,-0.5463,-0.5455,-0.5451,-0.5464,-0.5461,-0.5465,-0.5468,-0.5461,-0.5485,-0.548,-0.5469,-0.5452,-0.548,-0.5491,-0.5495,-0.5436,-0.5436,-0.5435,-0.5435,0,0,-0.5483,-0.5477,-0.5481,-0.5481,-0.5478,-0.5484,-0.5494,-0.5498,-0.5503,-0.5503,-0.5513,-0.5521,-0.5511,-0.5513,-0.5506,-0.5515,-0.5542,-0.5503,-0.5503,-0.5511,-0.557,-0.5579,-0.5584,-0.5536,-0.5536,-0.5537,-0.557,0,-0.5513,-0.553,-0.552,-0.5539,-0.5546,-0.5531,-0.5541,-0.5541,-0.5537,-0.5543,-0.5538,-0.5545,-0.5531,-0.5532,-0.5541,-0.5537,-0.5554,-0.5535,-0.5545,-0.5546,-0.5546,-0.559,-0.5599,-0.563,-0.5574,-0.5575,-0.5576,0,-0.555,-0.5552,-0.5572,-0.5569,-0.5571,-0.558,-0.5583,-0.5589,-0.5589,-0.5585,-0.5588,-0.5578,-0.559,-0.5573,-0.5589,-0.5576,-0.558,-0.5579,-0.558,-0.5581,-0.5563,-0.5593,-0.564,-0.5645,-0.5582,-0.5582,-0.5581,0,-0.5582,-0.559,-0.5603,-0.5604,-0.56,-0.5607,-0.5606,-0.5605,-0.5608,-0.5612,-0.5614,-0.5619,-0.5621,-0.5626,-0.5618,-0.5607,-0.5636,-0.5618,-0.5635,-0.5635,-0.5642,-0.5641,-0.5691,-0.5643,-0.5643,-0.5643,-0.5643,0,-0.5617,-0.563,-0.5618,-0.5626,-0.5641,-0.563,-0.5645,-0.5642,-0.5642,-0.565,-0.5637,-0.5645,-0.5635,-0.5642,-0.5636,-0.5651,-0.5653,-0.5651,-0.5649,-0.5652,-0.5653,-0.5655,-0.5653,-0.5644,-0.5644,-0.5644,-0.5643,0,-0.5655,-0.5648,-0.5661,-0.5657,-0.5656,-0.5667,-0.5664,-0.5672,-0.5668,-0.5678,-0.568,-0.5673,-0.5682,-0.5675,-0.5682,-0.5679,-0.5699,-0.5694,-0.5699,-0.5698,-0.5714,-0.5713,-0.5768,-0.5775,-0.5722,-0.5722,-0.5723,0,-0.5678,-0.5688,-0.5685,-0.5689,-0.5689,-0.5696,-0.57,-0.569,-0.5694,-0.5696,-0.5704,-0.5711,-0.5716,-0.573,-0.5726,-0.5733,-0.5728,-0.5747,-0.5729,-0.5732,-0.573,-0.5729,-0.5731,-0.5751,-0.5751,-0.5752,-0.5752,0,-0.572,-0.5716,-0.5721,-0.5726,-0.573,-0.5733,-0.5735,-0.574,-0.573,-0.5736,-0.5744,-0.5748,-0.5756,-0.5764,-0.5769,-0.5769,-0.576,-0.5758,-0.5762,-0.5766,-0.5768,-0.5768,-0.5709,-0.5757,-0.5756,-0.5756,-0.5756,-0.5756,-0.5752,-0.576,-0.576,-0.5766,-0.5767,-0.577,-0.5777,-0.5774,-0.578,-0.5786,-0.578,-0.5791,-0.5792,-0.5798,-0.5799,-0.5808,-0.58,-0.5806,-0.5807,-0.5809,-0.5812,-0.5767,-0.5808,-0.5808,-0.5808,-0.5808,-0.5808,0,-0.5794,-0.5793,-0.5799,-0.5803,-0.5808,-0.5798,-0.5801,-0.5806,-0.5815,-0.5817,-0.5822,-0.5833,-0.584,-0.5837,-0.5845,-0.5852,-0.5848,-0.5854,-0.5854,-0.5854,-0.5818,-0.5814,-0.5858,-0.5858,-0.5858,-0.5858,-0.5858,-0.5858,-0.5816,-0.583,-0.5827,-0.5841,-0.584,-0.585,-0.5852,-0.5855,-0.5856,-0.5868,-0.5874,-0.5872,-0.5873,-0.588,-0.5887,-0.5886,-0.589,-0.5898,-0.5896,-0.5862,-0.5857,-0.5852,-0.5848,-0.5899,-0.5899,-0.5931,-0.5932,-0.5932]}]]